Regional Weather Roundup
Issued by NWS

Home | Current Version | Previous Version | Graphics & Text | Print | Product List | Glossary On
Versions: 1 2 3 4 5 6 7 8 9 10 11 12 13 14 15 16 17 18 19 20 21 22 23 24 25 26 27 28 29 30 31 32 33 34 35 36 37 38 39 40 41 42 43 44 45 46 47 48 49 50
994
ASUS45 KPSR 151310
RWRAZ

ARIZONA HOURLY REGIONAL WEATHER ROUNDUP
NATIONAL WEATHER SERVICE PHOENIX AZ
600 AM MST FRI DEC 15 2017

NOTE: FAIR INDICATES FEW OR NO CLOUDS BELOW 12,000 FEET WITH NO
SIGNIFICANT WEATHER AND/OR OBSTRUCTIONS TO VISIBILITY.

AZZ001>003-036-151400-
NORTHWEST ARIZONA

CITY           SKY/WX    TMP DP  RH WIND       PRES   REMARKS
BULLHEAD CITY  CLEAR     57  18  21 N21       30.22R
KINGMAN        PTCLDY    31  13  47 E7        30.28S WCI  24
$$

AZZ004>008-015-016-018-151400-
NORTH CENTRAL ARIZONA

CITY           SKY/WX    TMP DP  RH WIND       PRES   REMARKS
GRAND CANYON   MOCLDY     9  -5  53 CALM      30.36R
WILLIAMS       MOCLDY    19  -6  32 SE9       30.30S WCI   9
PRESCOTT       MOCLDY    21   5  50 SW6       30.29F WCI  13
FLAGSTAFF      PTCLDY    31 -10  16 E8        30.33R WCI  23
PAYSON         CLEAR     36  -2  20 NE5       30.25F WCI  32
PAGE           MOCLDY    31  11  43 W5        30.33F WCI  26
$$

AZZ009>014-017-151400-
NORTHEAST ARIZONA

CITY           SKY/WX    TMP DP  RH WIND       PRES   REMARKS
WINSLOW        CLOUDY    14   3  61 SW6       30.36R WCI   5
SAINT JOHNS    CLOUDY    16  10  77 NW6       30.33R WCI   7
SHOW LOW       PTCLDY    19   9  63 E3        30.34R
$$

AZZ540-542>544-546-548-151400-
GREATER PHOENIX AREA

CITY           SKY/WX    TMP DP  RH WIND       PRES   REMARKS
PHOENIX        CLEAR     54  16  22 E9        30.15S
BUCKEYE        CLEAR     52  12  20 SE12      30.16S
LUKE AFB       CLEAR     49  16  27 CALM      30.15R
DEER VALLEY    CLEAR     50  11  20 N10       30.16S
SCOTTSDALE     CLEAR     62  11  13 E6        30.17S
MESA-FALCON    CLEAR     54  18  24 NE9       30.16
MESA-GATEWAY   CLEAR     55  16  21 SE9       30.17S
CHANDLER       CLEAR     54  19  26 CALM      30.16
$$

AZZ539-553-151400-
SOUTHWEST MARICOPA COUNTY AND PINAL COUNTY

CITY           SKY/WX    TMP DP  RH WIND       PRES   REMARKS
CASA GRANDE    NOT AVBL
$$

AZZ503-504-507>509-151400-
SOUTHEAST ARIZONA

CITY           SKY/WX    TMP DP  RH WIND       PRES   REMARKS
TUCSON         CLEAR     47  21  35 SE10      30.19S
DAVIS-MONTHAN  CLEAR     43  19  39 SE6       30.18R
RYAN FIELD     CLEAR     39  19  45 SE10      30.20  WCI  32
NOGALES        CLEAR     43  27  53 E8        30.18R
SIERRA VISTA   CLEAR     37  28  70 CALM      30.24R
DOUGLAS        CLEAR     40  24  53 SW3       30.23R
SAFFORD        CLEAR     39  14  36 SE9       30.26R WCI  33
$$

AZZ532-151400-
SOUTHWEST ARIZONA

CITY           SKY/WX    TMP DP  RH WIND       PRES   REMARKS
YUMA           CLEAR     53  20  27 N5        30.14S
$$

CAZ041-043-047-048-061-525>527-560>570-151400-
SOUTHERN CALIFORNIA

CITY           SKY/WX    TMP DP  RH WIND       PRES   REMARKS
DOWNTOWN L.A.  CLEAR     55  22  27 CALM      30.10S
L.A. AIRPORT   CLEAR     53  30  41 E5        30.11S
SAN DIEGO      CLEAR     51  36  56 CALM      30.10S
BURBANK        CLEAR     49  17  28 CALM      30.11S
ONTARIO        PTCLDY    51  13  21 VRB7      30.12S
RIVERSIDE      CLEAR     51  16  24 E7        30.14R
PALM SPRINGS   CLEAR     60  12  15 NW5       30.17S
EL CENTRO NAS  CLEAR     46  16  30 SW12      30.16S
IMPERIAL       CLEAR     47  24  40 S3        30.14S
BLYTHE         CLEAR     51  20  29 E10       30.18R
NEEDLES        CLEAR     57  19  22 N7        30.23R
$$

NVZ020-UTZ003-151400-
SOUTHERN NEVADA-UTAH

CITY           SKY/WX    TMP DP  RH WIND       PRES   REMARKS
LAS VEGAS      CLEAR     43  17  35 SW7       30.27F
SALT LAKE CITY PTCLDY    26  22  84 SE6       30.36F WCI  19
$$

NMZ009-TXZ055-151400-
NEW MEXICO-WEST TEXAS

CITY           SKY/WX    TMP DP  RH WIND       PRES   REMARKS
ALBUQUERQUE    CLOUDY    25  16  68 N3        30.34R
EL PASO        PTCLDY    34  20  56 N5        30.31R WCI  30
$$


........................KEY........................
SKY/WX - SKY CONDITION/WEATHER
TMP    - TEMPERATURE IN FAHRENHEIT
DP     - DEW POINT IN FAHRENHEIT
RH     - RELATIVE HUMIDITY IN PERCENT
WIND   - DIRECTION AND SPEED IN MILES PER HOUR (MPH)
VRB    - VARIABLE WIND DIRECTION
PRES   - MEAN SEA LEVEL PRESSURE IN INCHES OF MERCURY
         F - FALLING PRESSURE   R - RISING PRESSURE
         S - STEADY PRESSURE
VSB    - VISIBILITY IN MILES
HX     - HEAT INDEX IN FAHRENHEIT
WCI    - WIND CHILL INDEX IN FAHRENHEIT
TC     - TEMPERATURE IN CELSIUS WHICH IS ALSO KNOWN AS
         TEMPERATURE IN CENTIGRADE
AFB    - AIR FORCE BASE
         LUKE AFB IS LUKE AIR FORCE BASE
         DAVIS-MONTHAN IS DAVIS-MONTHAN AIR FORCE BASE
NAS    - NAVAL AIR STATION
         EL CENTRO NAS IS EL CENTRO NAVAL AIR STATION
N/A    - NOT AVAILABLE





USA.gov is the U.S. government's official web portal to all federal, state and local government web resources and services.